VA3PC-13 Weather Reports


time (UTC)temp
C
wind
direction
speed
KPH
gust
KPH
rain 1hr
cm
rain 24hr
cm
rain mn
cm
humidity
%
barometer
mb
20260506112518 1 299 0.0 1.6 0.00 0.00 0.00 84 979.7
20260506111518 0 85 0.0 1.6 0.00 0.00 0.00 84 979.6
20260506110518 0 182 0.0 3.2 0.00 0.00 0.00 84 979.6
20260506105559 0 295 0.0 4.8 0.00 0.00 0.00 84 979.5
20260506104518 0 224 0.0 3.2 0.00 0.00 0.00 84 979.5
20260506103539 0 307 0.0 1.6 0.00 0.00 0.00 83 979.3
20260506102519 1 39 0.0 1.6 0.00 0.00 0.00 82 979.1
20260506101539 1 268 0.0 1.6 0.00 0.00 0.00 82 979.1
20260506100517 1 280 0.0 1.6 0.00 0.00 0.00 81 979.3
20260506095520 1 303 0.0 0.0 0.00 0.00 0.00 80 979.4
20260506094519 1 108 0.0 1.6 0.00 0.00 0.00 80 979.3
20260506093519 1 227 0.0 1.6 0.00 0.00 0.00 80 979.3
20260506092519 1 262 0.0 0.0 0.00 0.00 0.00 79 979.5
20260506091517 1 5 0.0 0.0 0.00 0.00 0.00 78 979.5
20260506090516 1 0.0 0.0 0.00 0.00 0.00 78 979.4
20260506085520 1 251 0.0 1.6 0.00 0.00 0.00 77 979.7
20260506084520 2 123 0.0 0.0 0.00 0.00 0.00 76 979.5
20260506083537 2 340 0.0 1.6 0.00 0.00 0.00 76 979.4
20260506082659 2 299 0.0 1.6 0.00 0.00 0.00 75 979.3
20260506081517 2 276 0.0 1.6 0.00 0.00 0.00 75 979.0
20260506080517 2 262 0.0 1.6 0.00 0.00 0.00 75 979.0
20260506073517 2 114 0.0 0.0 0.00 0.00 0.00 74 978.7
20260506072518 2 283 0.0 1.6 0.00 0.00 0.00 75 978.9
20260506071518 2 58 0.0 0.0 0.00 0.03 0.00 74 979.0
20260506070519 2 265 0.0 1.6 0.00 0.03 0.00 73 979.0
20260506061519 2 285 0.0 1.6 0.00 0.03 0.00 70 979.3
20260506060516 2 213 0.0 1.6 0.00 0.03 0.00 69 979.3
20260506050516 3 210 0.0 1.6 0.00 0.05 0.00 67 979.3
20260506044520 3 212 0.0 1.6 0.00 0.05 0.00 65 979.1
20260506043517 3 229 0.0 3.2 0.00 0.05 0.00 66 978.9
20260506042517 3 193 0.0 1.6 0.00 0.05 0.00 65 978.9
20260506041538 3 207 0.0 1.6 0.00 0.08 0.00 65 978.9
20260506040518 4 207 0.0 1.6 0.00 0.08 0.00 64 978.8
20260506035519 4 208 0.0 1.6 0.00 0.08 0.08 64 978.8
20260506034538 4 195 0.0 3.2 0.00 0.08 0.08 63 978.8
20260506033518 4 235 0.0 1.6 0.00 0.08 0.08 62 978.8
20260506032518 4 174 0.0 3.2 0.00 0.08 0.08 62 978.8
20260506031518 5 195 0.0 3.2 0.00 0.08 0.08 62 978.7
20260506030519 5 226 0.0 3.2 0.00 0.08 0.08 61 978.7
20260506025520 5 207 0.0 1.6 0.00 0.08 0.08 60 978.7
20260506023519 5 225 0.0 6.4 0.00 0.08 0.08 60 978.6
20260506022541 5 210 0.0 3.2 0.00 0.08 0.08 58 978.6
20260506021519 6 212 0.0 4.8 0.00 0.08 0.08 59 978.5
20260506020519 6 233 0.0 4.8 0.00 0.08 0.08 58 978.3
20260506015521 6 207 0.0 1.6 0.00 0.08 0.08 59 978.2
20260506014516 6 224 0.0 3.2 0.00 0.08 0.08 57 978.1
20260506013516 6 141 1.6 8.0 0.00 0.08 0.08 56 978.0
20260506012520 7 164 1.6 6.4 0.00 0.08 0.08 55 977.8
20260506011520 7 139 1.6 9.7 0.00 0.08 0.08 54 977.6
20260506010517 7 229 1.6 4.8 0.00 0.08 0.08 54 977.5
20260506005517 7 152 1.6 6.4 0.00 0.08 0.08 51 977.4
20260506004537 8 239 1.6 3.2 0.00 0.08 0.08 51 977.4
20260506003520 8 271 0.0 3.2 0.00 0.08 0.08 49 977.2
20260506002518 8 246 1.6 4.8 0.00 0.08 0.08 48 977.1
20260506001539 8 249 1.6 4.8 0.00 0.08 0.08 47 977.0
20260506000518 9 261 3.2 6.4 0.00 0.08 0.08 47 976.9
20260505235518 9 252 1.6 6.4 0.00 0.08 0.08 46 976.8
20260505234518 9 231 3.2 8.0 0.00 0.08 0.08 45 976.6
20260505233518 10 254 3.2 6.4 0.00 0.08 0.08 45 976.5
20260505232520 10 257 3.2 8.0 0.00 0.08 0.08 44 976.4
20260505231519 10 277 4.8 8.0 0.00 0.08 0.08 44 976.3
20260505230518 10 263 3.2 9.7 0.00 0.08 0.08 40 976.3
20260505225520 10 273 4.8 12.9 0.00 0.08 0.08 39 976.2
20260505224519 10 266 4.8 14.5 0.00 0.08 0.08 38 976.0
20260505223520 10 282 1.6 4.8 0.00 0.08 0.08 39 976.0
20260505222519 10 275 3.2 8.0 0.00 0.08 0.08 39 975.9
20260505221516 10 268 4.8 9.7 0.00 0.08 0.08 38 975.9
20260505220518 10 263 3.2 11.3 0.00 0.08 0.08 39 975.9
20260505215541 11 271 4.8 8.0 0.00 0.08 0.08 40 975.6
20260505214520 11 270 3.2 9.7 0.00 0.08 0.08 40 975.4
20260505213520 11 254 4.8 9.7 0.00 0.08 0.08 39 975.2
20260505212518 10 285 3.2 6.4 0.00 0.08 0.08 42 975.1
20260505211517 10 264 3.2 8.0 0.00 0.08 0.08 44 975.2
20260505210538 10 226 4.8 11.3 0.00 0.08 0.08 43 974.9
20260505205519 10 236 3.2 9.7 0.00 0.08 0.08 43 974.7
20260505204519 10 210 6.4 12.9 0.00 0.08 0.08 42 974.6
20260505203518 10 223 4.8 11.3 0.00 0.08 0.08 41 974.6
20260505202518 11 265 4.8 11.3 0.00 0.08 0.08 39 974.3
20260505201518 11 222 6.4 12.9 0.00 0.08 0.08 39 974.2
20260505200519 11 247 6.4 12.9 0.00 0.08 0.08 38 973.9
20260505195518 11 250 6.4 16.1 0.00 0.08 0.08 38 973.7
20260505194518 11 221 4.8 9.7 0.00 0.08 0.08 39 973.6
20260505193538 11 237 4.8 11.3 0.00 0.08 0.08 40 973.3
20260505192519 11 229 4.8 9.7 0.00 0.08 0.08 40 973.1
20260505191519 11 188 6.4 14.5 0.00 0.08 0.08 40 973.1
20260505190519 12 151 6.4 9.7 0.00 0.08 0.08 40 972.9
20260505185519 12 252 4.8 14.5 0.00 0.08 0.08 40 972.9
20260505184520 12 225 4.8 9.7 0.00 0.08 0.08 40 972.8
20260505183516 11 220 4.8 9.7 0.00 0.08 0.08 41 972.7
20260505182516 12 244 6.4 17.7 0.00 0.08 0.08 40 972.7
20260505181520 11 252 4.8 12.9 0.00 0.08 0.08 42 972.6
20260505180520 11 239 6.4 11.3 0.00 0.08 0.08 41 972.6
20260505175517 12 260 6.4 11.3 0.00 0.08 0.08 40 972.3
20260505174517 12 262 4.8 12.9 0.00 0.08 0.08 40 972.1
20260505173517 12 208 4.8 11.3 0.00 0.08 0.08 40 971.9
20260505172520 12 228 6.4 11.3 0.00 0.08 0.08 40 971.7
20260505171520 12 226 4.8 9.7 0.00 0.08 0.08 40 971.6
20260505170517 12 213 4.8 8.0 0.00 0.08 0.08 40 971.8
20260505165518 11 201 3.2 8.0 0.00 0.08 0.08 41 971.7
20260505164520 11 172 4.8 12.9 0.00 0.08 0.08 42 972.1
20260505163524 11 267 4.8 9.7 0.00 0.08 0.08 43 971.3
20260505162518 10 244 4.8 8.0 0.00 0.08 0.08 45 971.8
20260505161518 10 211 3.2 6.4 0.00 0.08 0.08 45 972.1
20260505160539 10 237 4.8 14.5 0.00 0.08 0.08 47 972.2
20260505152519 10 245 3.2 8.0 0.00 0.08 0.08 54 971.6
20260505151519 10 258 3.2 8.0 0.00 0.08 0.08 57 971.6
20260505150520 10 253 3.2 11.3 0.00 0.08 0.08 58 971.6
20260505140517 8 265 1.6 6.4 0.00 0.08 0.08 71 971.2
20260505124518 8 273 1.6 4.8 0.00 0.08 0.08 74 970.5
20260505123518 8 274 1.6 4.8 0.00 0.08 0.08 74 970.3
20260505122539 8 309 1.6 3.2 0.00 0.08 0.08 75 970.2
20260505121539 8 268 1.6 4.8 0.00 0.08 0.08 76 970.0
20260505120520 8 282 1.6 3.2 0.00 0.08 0.08 78 970.1
20260505115518 8 283 1.6 3.2 0.00 0.08 0.08 78 969.9
20260505114520 8 290 1.6 4.8 0.00 0.08 0.08 78 969.9
20260505113520 8 287 1.6 4.8 0.00 0.08 0.08 79 969.7